Glasgow, United Kingdom

1:23 PM GMT on January 17, 2018 (GMT +0000)
Glasgow

Weather History for EGPF - January, 2014

Change the Weather History Date:

Thursday, January 16, 2014

  Actual Average Record
Temperature  
Mean Temperature 37 °F -  
Max Temperature 44 °F 44 °F 51 °F (2003)
Min Temperature 30 °F 32 °F 23 °F (2012)
Degree Days  
Heating Degree Days 28    
Moisture  
Dew Point 37 °F    
Average Humidity 93    
Maximum Humidity 100    
Minimum Humidity 81    
Precipitation  
Precipitation 0.00 in - - ()
Sea Level Pressure  
Sea Level Pressure 29.07 in    
Wind  
Wind Speed 6 mph ()    
Max Wind Speed 13 mph    
Max Gust Speed -    
Visibility 5.0 miles    
Events Fog , Rain    
Averages and records for this station are not official NWS values.
T = Trace of Precipitation, MM = Missing Value Source: Averaged Metar Reports

Daily Weather History Graph

Daily Weather History Graph

Search for Another Location

Airport or City:

Trip Planner

Search our weather history database for the weather conditions in past years. The results will help you decide how hot, cold, wet, or windy it might be!

Date:

Astronomy

Jan. 16, 2014 Rise Set
Actual Time 8:37 AM GMT 4:18 PM GMT
Civil Twilight 7:52 AM GMT 5:02 PM GMT
Nautical Twilight 7:05 AM GMT 5:49 PM GMT
Astronomical Twilight 6:21 AM GMT 6:33 PM GMT
Moon 5:14 PM GMT (1/16) 8:06 AM GMT (1/16)
Length of Visible Light 9h 09m
Length of Day
7h 41m
Full, 100% of the Moon is Illuminated
Jan 16
Full
Jan 24
Last Quarter
Jan 30
New
Feb 6
First Quarter
Feb 14
Full

Hourly Weather History & Observations

Time (GMT) Temp. Windchill Dew Point Humidity Pressure Visibility Wind Dir Wind Speed Gust Speed Precip Events Conditions
12:20 AM 37.4 °F 34.9 °F 37.4 °F 100% 29.15 in 6.2 mi East 3.5 mph - N/A   Scattered Clouds
12:50 AM 35.6 °F 31.7 °F 33.8 °F 93% 29.12 in 5.6 mi SE 4.6 mph - N/A Fog Fog
1:20 AM 35.6 °F - 35.6 °F 100% 29.12 in 3.7 mi NNE 2.3 mph - N/A Fog Patches of Fog
1:50 AM 35.6 °F 32.8 °F 35.6 °F 100% 29.15 in 3.7 mi ENE 3.5 mph - N/A Fog Patches of Fog
2:20 AM 37.4 °F 34.9 °F 37.4 °F 100% 29.12 in 3.7 mi NE 3.5 mph - N/A Fog Patches of Fog
2:50 AM 35.6 °F 31.7 °F 35.6 °F 100% 29.12 in 3.7 mi East 4.6 mph - N/A Fog Patches of Fog
3:20 AM 33.8 °F - 33.8 °F 100% 29.12 in 0.4 mi Calm Calm - N/A Fog Patches of Fog
3:50 AM 32.0 °F - 32.0 °F 100% 29.12 in 0.4 mi SSW 2.3 mph - N/A Fog Light Freezing Fog
4:20 AM 32.0 °F - 32.0 °F 100% 29.12 in 0.2 mi Calm Calm - N/A Fog Light Freezing Fog
4:50 AM 30.2 °F - 30.2 °F 100% 29.12 in 0.2 mi Variable 2.3 mph - N/A Fog Light Freezing Fog
5:20 AM 30.2 °F 26.7 °F 30.2 °F 100% 29.09 in 0.4 mi Variable 3.5 mph - N/A Fog Light Freezing Fog
5:50 AM 32.0 °F 28.7 °F 32.0 °F 100% 29.09 in 1.3 mi Variable 3.5 mph - N/A   Mostly Cloudy
6:20 AM 33.8 °F 28.6 °F 33.8 °F 100% 29.12 in 3.1 mi South 5.8 mph - N/A Rain Light Rain
6:50 AM 35.6 °F 32.8 °F 35.6 °F 100% 29.12 in 3.1 mi Variable 3.5 mph - N/A Rain Rain
7:20 AM 37.4 °F 32.1 °F 37.4 °F 100% 29.09 in 4.3 mi ENE 6.9 mph - N/A Rain Light Rain
7:50 AM 37.4 °F 32.1 °F 37.4 °F 100% 29.09 in 3.7 mi NE 6.9 mph - N/A   Mostly Cloudy
8:20 AM 37.4 °F 32.8 °F 35.6 °F 93% 29.09 in 6.2 mi ENE 5.8 mph - N/A   Mostly Cloudy
8:50 AM 37.4 °F 32.1 °F 37.4 °F 100% 29.09 in 6.2 mi East 6.9 mph - N/A   Scattered Clouds
9:20 AM 39.2 °F 35.0 °F 37.4 °F 93% 29.09 in 6.2 mi East 5.8 mph - N/A Rain Light Rain Showers
9:50 AM 39.2 °F 33.6 °F 37.4 °F 93% 29.09 in 6.2 mi ENE 8.1 mph - N/A   Mostly Cloudy
10:20 AM 41.0 °F 35.2 °F 39.2 °F 93% 29.09 in 6.2 mi ENE 9.2 mph - N/A   Scattered Clouds
10:50 AM 42.8 °F 38.6 °F 41.0 °F 93% 29.09 in - East 6.9 mph - N/A   Clear
11:20 AM 42.8 °F 38.0 °F 39.2 °F 87% 29.09 in 6.2 mi East 8.1 mph - N/A   Partly Cloudy
11:50 AM 42.8 °F 38.0 °F 39.2 °F 87% 29.09 in 6.2 mi East 8.1 mph - N/A   Scattered Clouds
12:20 PM 42.8 °F 37.5 °F 39.2 °F 87% 29.06 in 6.2 mi East 9.2 mph - N/A   Scattered Clouds
12:50 PM 44.6 °F 39.7 °F 41.0 °F 87% 29.06 in 6.2 mi East 9.2 mph - N/A   Scattered Clouds
1:20 PM 44.6 °F 39.7 °F 41.0 °F 87% 29.06 in 6.2 mi East 9.2 mph - N/A   Scattered Clouds
1:50 PM 44.6 °F 39.2 °F 41.0 °F 87% 29.06 in 6.2 mi East 10.4 mph - N/A   Scattered Clouds
2:20 PM 44.6 °F 40.2 °F 41.0 °F 87% 29.03 in 6.2 mi ESE 8.1 mph - N/A   Mostly Cloudy
2:50 PM 44.6 °F 40.7 °F 41.0 °F 87% 29.03 in 6.2 mi ENE 6.9 mph - N/A   Mostly Cloudy
3:20 PM 44.6 °F 38.4 °F 39.2 °F 81% 29.03 in 6.2 mi East 12.7 mph - N/A   Mostly Cloudy
3:50 PM 42.8 °F 38.0 °F 39.2 °F 87% 29.03 in 6.2 mi ENE 8.1 mph - N/A   Scattered Clouds
4:20 PM 42.8 °F 37.0 °F 39.2 °F 87% 29.03 in 6.2 mi ENE 10.4 mph - N/A   Scattered Clouds
4:50 PM 42.8 °F 37.0 °F 39.2 °F 87% 29.03 in 6.2 mi ENE 10.4 mph - N/A   Mostly Cloudy
5:20 PM 42.8 °F 37.5 °F 39.2 °F 87% 29.03 in 6.2 mi ENE 9.2 mph - N/A   Scattered Clouds
5:50 PM 41.0 °F 34.7 °F 39.2 °F 93% 29.03 in 6.2 mi ENE 10.4 mph - N/A   Mostly Cloudy
6:20 PM 42.8 °F 36.6 °F 39.2 °F 87% 29.03 in 6.2 mi ENE 11.5 mph - N/A   Scattered Clouds
6:50 PM 42.8 °F 36.2 °F 39.2 °F 87% 29.03 in 6.2 mi ENE 12.7 mph - N/A   Mostly Cloudy
7:20 PM 42.8 °F 36.6 °F 39.2 °F 87% 29.03 in 6.2 mi ENE 11.5 mph - N/A   Mostly Cloudy
7:50 PM 41.0 °F 33.9 °F 39.2 °F 93% 29.03 in 6.2 mi East 12.7 mph - N/A   Scattered Clouds
8:20 PM 41.0 °F 34.3 °F 39.2 °F 93% 29.03 in 6.2 mi East 11.5 mph - N/A   Scattered Clouds
8:50 PM 41.0 °F 34.3 °F 39.2 °F 93% 29.03 in 6.2 mi ENE 11.5 mph - N/A   Scattered Clouds
9:20 PM 41.0 °F 34.7 °F 37.4 °F 87% 29.03 in 6.2 mi ENE 10.4 mph - N/A   Scattered Clouds
9:50 PM 41.0 °F 34.7 °F 37.4 °F 87% 29.03 in 6.2 mi ENE 10.4 mph - N/A   Scattered Clouds
10:20 PM 41.0 °F 35.2 °F 37.4 °F 87% 29.03 in 5.6 mi ENE 9.2 mph - N/A   Scattered Clouds
10:50 PM 41.0 °F 35.2 °F 37.4 °F 87% 29.03 in 6.2 mi ENE 9.2 mph - N/A   Scattered Clouds
11:20 PM 41.0 °F 35.8 °F 39.2 °F 93% 29.03 in 6.2 mi ENE 8.1 mph - N/A   Mostly Cloudy
11:50 PM 42.8 °F 37.0 °F 39.2 °F 87% 29.03 in 6.2 mi ENE 10.4 mph - N/A   Mostly Cloudy